Location: Hackbridge
(51.3833°N, 0.1500°W)
Time: 02:56:43
(UTC+00:00)

Cosmos 1271 Rocket - Pass Details

Date: 13 October 2019
Orbit: 499 x 545 km, 81.2° (Epoch: 22 November)

Event Time Altitude Azimuth Distance (km) Brightness Sun altitude
Rises 17:42:59 0° 353° (N) 2,679 6.4 -5.5°
Reaches altitude 10° 17:45:15 10° 1° (N) 1,792 5.4 -5.9°
Maximum altitude 17:48:58 38° 71° (ENE) 825 3.3 -6.5°
Drops below altitude 10° 17:52:42 10° 141° (SE) 1,800 5.1 -7.0°
Sets 17:54:58 0° 149° (SSE) 2,693 6.1 -7.4°
